[[{"header":{"parameterUnit":"m.s-1","parameterCategory":1,"la1":30.2991,"la2":30.254,"lo1":-89.0895,"lo2":-89.0444,"dy":0.0017,"dx":0.0017,"nx":28,"ny":28,"refTime":"2025-07-09T09:00:00:Z","depth":0,"parameterNumber":2,"parameterNumberName":"U-component_of_WINDS"},"data":[0,0,0,0,0,0,0,0,0,0,0,0,0,0,0,0,0,0,0,0,0,0,0,0,0,0,0,0,0,0,0,0,0,0,0,0,0,0,0,0,0,0,0,0,0,0,0,0,0,0,0,0,0,0,0,0,0,0,3.7879,3.788,0,3.7977,3.7978,3.7979,3.7935,3.7932,3.793,3.7928,3.8031,3.8036,3.8041,0,0,0,0,0,0,0,0,0,0,0,0,0,3.7656,3.7661,3.7879,3.788,3.7882,3.7977,3.7978,3.7979,3.7935,3.7932,3.7929,3.7926,3.8029,3.8035,3.8041,0,0,0,0,0,0,0,0,0,0,0,0,0,3.7754,3.7662,3.7879,3.7871,3.7871,3.7976,3.7978,3.798,3.7936,3.7932,3.7928,3.7925,3.8027,3.8035,3.8042,3.8162,0,0,3.8065,3.8068,0,0,0,0,0,0,0,0,3.7748,3.7762,3.7871,3.7872,3.7872,3.794,3.7937,3.8041,3.7937,3.7911,3.7928,3.7923,3.8004,3.8013,3.8039,3.8167,3.8171,3.8066,3.807,3.8074,3.8076,0,0,0,0,0,0,0,3.7742,3.7757,3.7918,3.7872,3.7873,3.7863,3.7873,3.7957,3.7977,3.7913,3.791,3.7922,3.8003,3.8032,3.8042,3.8173,3.8065,3.8072,3.8077,3.808,3.8401,3.8405,0,0,0,0,0,0,3.7735,3.7752,3.7915,3.7921,3.78,3.787,3.7881,3.7922,3.7976,3.7981,3.7925,3.792,3.8021,3.8033,3.8045,3.8187,3.8073,3.8081,3.8085,3.8397,3.8402,3.8407,0,0,0,0,0,0,3.773,3.7749,3.7911,3.7836,3.7855,3.7878,3.7924,3.7926,3.7954,3.7985,3.7989,3.7951,3.8019,3.8034,3.8132,3.819,3.8084,3.8091,3.8393,3.8399,3.8404,3.8474,0,0,0,0,0,0,3.7724,3.7748,3.7793,3.7837,3.786,3.7996,3.7928,3.793,3.7967,3.7961,3.801,3.8015,3.8017,3.8121,3.814,3.8199,3.8097,3.8388,3.8395,3.8403,3.8466,3.8481,3.8494,0,0,0,0,0,3.7716,3.781,3.7796,3.7816,3.7916,3.8,3.8013,3.8012,3.7972,3.8018,3.8037,3.8013,3.8181,3.8132,3.8152,3.8214,3.8384,3.8393,3.8402,3.846,3.8478,3.8494,0,0,0,0,0,0,3.7774,3.7815,3.78,3.7911,3.7952,3.7992,3.8049,3.8032,3.8086,3.8078,3.8077,3.8089,3.819,3.8212,3.8156,3.8332,3.8276,3.829,3.8313,3.8331,3.8345,3.8337,3.8103,0,0,0,0,0,3.7799,3.7862,3.7896,3.799,3.8011,3.8027,3.8063,3.806,3.8102,3.812,3.8147,3.819,3.8252,3.8293,3.8352,3.847,3.8479,3.8522,3.8536,3.8548,3.8559,3.8621,3.864,3.8436,3.8436,3.8436,0,0,3.7853,3.7883,3.7923,3.8003,3.8034,3.8099,3.8042,3.8115,3.8163,3.8131,3.8224,3.8246,3.8294,3.8402,3.845,3.8423,3.8617,3.8559,3.8568,3.8573,3.8632,3.8651,3.8668,3.8442,3.8441,3.844,0,0,3.7983,3.8013,3.8094,3.8126,3.8174,3.8184,3.8203,3.8246,3.8258,3.8352,3.8329,3.8387,3.8495,3.853,3.8561,3.8705,3.8684,3.8724,3.8796,3.8857,3.8873,3.8887,3.8936,3.8954,3.8736,3.8736,3.8736,0,3.8043,3.8141,3.8138,3.8212,3.8247,3.822,3.8302,3.8334,3.8399,3.8424,3.8393,3.8527,3.8558,3.8672,3.8707,3.8734,3.8756,3.8718,3.8871,3.8885,3.8898,3.8945,3.8964,3.874,3.874,3.8739,3.8739,0,3.8212,3.828,3.834,3.8401,3.8444,3.8522,3.8531,3.8575,3.8568,3.8581,3.8676,3.8712,3.8777,3.8804,3.8799,3.8918,3.8899,3.887,3.8813,3.8922,3.8966,3.8984,3.8747,3.8745,3.8744,3.8743,0,0,3.838,3.8439,3.8461,3.8488,3.8539,3.8592,3.8668,3.8731,3.8767,3.8813,3.8877,3.8968,3.8941,3.8977,3.8975,3.9029,3.9137,3.8992,3.8993,3.9016,3.9269,3.9289,3.931,3.9124,3.9128,3.9131,3.9264,0,3.8513,3.8645,3.8645,3.8768,3.883,3.8806,3.8872,3.8911,3.8925,3.898,3.8997,3.9061,3.902,3.9042,3.9094,3.9113,3.9188,3.9104,3.9183,3.9186,3.9169,3.9333,3.9356,3.948,3.9281,3.9284,3.9287,0,3.8685,3.8735,3.8863,3.8903,3.8929,3.8989,3.9045,3.9099,3.9142,3.9149,3.9189,3.9179,3.9256,3.9199,3.9306,3.9249,3.9281,3.9296,3.9301,3.9306,3.9241,3.9342,3.9519,3.9537,3.9314,3.9312,3.931,0,3.8792,3.8892,3.8981,3.9005,3.9055,3.9097,3.912,3.9159,3.9197,3.9247,3.9271,3.933,3.9362,3.9408,3.9414,3.9372,3.9521,3.9465,3.9528,3.9528,3.9559,3.9557,3.9743,3.9584,3.9584,3.9584,3.9583,0,3.8939,3.9018,3.9029,3.9084,3.9172,3.9172,3.9259,3.9278,3.9313,3.9371,3.9355,3.941,3.9416,3.9473,3.9478,3.9565,3.958,3.9587,3.9587,3.9588,3.9586,3.9607,3.9598,3.9589,3.9588,3.9587,3.9586,0,3.9073,3.9084,3.9179,3.9218,3.923,3.9293,3.9326,3.9378,3.9391,3.9465,3.9482,3.9503,3.9568,3.9579,3.9658,3.9661,3.9764,3.9757,3.9749,3.9747,3.9809,3.9803,4.0013,4.004,3.9867,3.9868,3.987,0,3.9164,3.9224,3.9269,3.9306,3.9331,3.9392,3.9429,3.9432,3.9472,3.9525,3.957,3.9634,3.9685,3.9792,3.9814,3.9873,3.9866,3.9936,3.9874,3.9872,3.9864,3.9859,3.9864,3.9947,3.9948,3.995,3.9951,0,3.9325,3.9328,3.9382,3.9438,3.9483,3.9528,3.957,3.9602,3.961,3.9655,3.9722,3.9761,3.984,3.9903,3.9962,3.9986,3.997,3.9971,3.9988,3.9987,3.9979,3.9982,3.9779,3.9965,3.9964,3.9963,3.9962,3.9961,3.9439,3.9491,3.953,3.9591,3.9623,3.9662,3.9712,3.9731,3.9786,3.985,3.9849,3.9921,3.9962,4.0039,4.0067,4.0124,4.0101,4.0127,4.0133,4.0139,4.0144,3.9972,4.0135,4.0135,4.0134,4.0134,4.0134,0,3.9597,3.9621,3.9677,3.9736,3.9784,3.9764,3.981,3.9851,3.9914,3.9954,4.0004,4.008,4.0141,4.0168,4.0228,4.0268,4.0262,4.0284,4.0279,4.0285,4.0162,4.0139,4.0287,4.0287,4.0287,4.0287,4.0287,4.0287,3.9685,3.977,3.9777,3.9878,3.9902,3.9971,3.9999,4.0035,4.0066,4.0151,4.0202,4.0218,4.0253,4.0315,4.037,4.0376,4.0398,4.0423,4.0425,4.0309,4.0294,4.0279,4.0258,4.0428,4.0428,4.0543,4.0544,4.0545]},{"header":{"parameterUnit":"m.s-1","parameterCategory":1,"la1":30.2991,"la2":30.254,"lo1":-89.0895,"lo2":-89.0444,"dy":0.0017,"dx":0.0017,"nx":28,"ny":28,"refTime":"2025-07-09T09:00:00:Z","depth":0,"parameterNumber":3,"parameterNumberName":"V-component_of_WINDS"},"data":[0,0,0,0,0,0,0,0,0,0,0,0,0,0,0,0,0,0,0,0,0,0,0,0,0,0,0,0,0,0,0,0,0,0,0,0,0,0,0,0,0,0,0,0,0,0,0,0,0,0,0,0,0,0,0,0,0,0,4.0626,4.0627,0,4.0709,4.071,4.0711,4.073,4.0729,4.0729,4.0728,4.0807,4.0809,4.0812,0,0,0,0,0,0,0,0,0,0,0,0,0,4.0474,4.0476,4.0626,4.0627,4.0628,4.0709,4.071,4.0712,4.073,4.0729,4.0729,4.0728,4.0806,4.0809,4.0812,0,0,0,0,0,0,0,0,0,0,0,0,0,4.0546,4.0477,4.0626,4.0647,4.065,4.0709,4.071,4.0712,4.073,4.0729,4.0729,4.0728,4.0805,4.0809,4.0812,4.0854,0,0,4.0824,4.0826,0,0,0,0,0,0,0,0,4.0542,4.0552,4.0643,4.0646,4.0649,4.0709,4.0685,4.0759,4.073,4.07,4.0728,4.0727,4.0774,4.0781,4.0798,4.0857,4.0861,4.0825,4.0827,4.0829,4.083,0,0,0,0,0,0,0,4.0537,4.0548,4.0659,4.0644,4.0648,4.065,4.0659,4.0699,4.074,4.0702,4.0704,4.0714,4.0776,4.0794,4.08,4.0862,4.0825,4.0828,4.0831,4.0832,4.0956,4.0957,0,0,0,0,0,0,4.053,4.0544,4.0656,4.0661,4.0593,4.0653,4.0664,4.069,4.074,4.0747,4.0714,4.0714,4.0788,4.0795,4.0803,4.0852,4.0829,4.0832,4.0835,4.0955,4.0956,4.0957,0,0,0,0,0,0,4.0526,4.0539,4.0653,4.0603,4.0618,4.0657,4.0686,4.0692,4.0711,4.0749,4.0756,4.0726,4.0787,4.0797,4.0841,4.0855,4.0834,4.0838,4.0954,4.0955,4.0956,4.0953,0,0,0,0,0,0,4.0522,4.0538,4.0557,4.0604,4.062,4.0692,4.0687,4.0695,4.0718,4.0719,4.0762,4.0769,4.0787,4.0835,4.0844,4.086,4.0841,4.0952,4.0954,4.0956,4.0952,4.0954,4.0956,0,0,0,0,0,4.0516,4.0551,4.0558,4.0571,4.0645,4.0693,4.0702,4.0725,4.072,4.0737,4.0761,4.0767,4.0852,4.0839,4.085,4.0867,4.0952,4.0954,4.0956,4.0951,4.0954,4.0956,0,0,0,0,0,0,4.0503,4.0558,4.0565,4.0618,4.0651,4.0696,4.0719,4.0728,4.0762,4.076,4.0785,4.0795,4.0836,4.0856,4.084,4.0908,4.0901,4.0906,4.0894,4.0897,4.0899,4.0892,4.0844,0,0,0,0,0,4.0507,4.0544,4.0589,4.063,4.0647,4.068,4.0702,4.0716,4.0751,4.0764,4.0792,4.0823,4.0856,4.0878,4.0911,4.0955,4.0963,4.0972,4.0974,4.0975,4.0978,4.1,4.1004,4.0964,4.0964,4.0964,0,0,4.0514,4.0548,4.057,4.0628,4.0656,4.0691,4.0691,4.0729,4.0754,4.0769,4.0812,4.0833,4.0869,4.0912,4.0933,4.093,4.0991,4.0978,4.0979,4.0981,4.1003,4.1007,4.101,4.0965,4.0965,4.0965,0,0,4.0544,4.0575,4.0612,4.064,4.0682,4.0703,4.0712,4.0756,4.0771,4.0814,4.0826,4.0854,4.0912,4.0937,4.0957,4.0993,4.0999,4.1003,4.1013,4.1034,4.1037,4.104,4.1051,4.1055,4.1006,4.1006,4.1006,0,4.0547,4.0603,4.0629,4.0666,4.069,4.0707,4.0742,4.0766,4.0816,4.083,4.0828,4.0899,4.0924,4.0972,4.0981,4.0997,4.1005,4.0998,4.1035,4.1038,4.1041,4.1052,4.1056,4.1006,4.1006,4.1006,4.1006,0,4.0603,4.0641,4.0665,4.0714,4.0741,4.0776,4.0805,4.0828,4.084,4.086,4.0902,4.0933,4.0972,4.0984,4.0996,4.1033,4.103,4.1031,4.1024,4.1045,4.1055,4.106,4.1006,4.1006,4.1006,4.1006,0,0,4.0628,4.0691,4.0699,4.072,4.0767,4.0795,4.083,4.0869,4.0887,4.092,4.0948,4.0995,4.0996,4.1018,4.1032,4.1051,4.1075,4.1049,4.105,4.1051,4.1115,4.1113,4.1118,4.1079,4.108,4.1081,4.1111,0,4.0663,4.0729,4.0752,4.0805,4.0838,4.0854,4.0883,4.0913,4.0933,4.0962,4.0982,4.1015,4.1014,4.1027,4.1047,4.1068,4.1088,4.1066,4.1102,4.1104,4.1092,4.1123,4.1122,4.1149,4.1115,4.1116,4.1117,0,4.0712,4.0747,4.0804,4.0844,4.0859,4.0886,4.0923,4.0951,4.0984,4.0996,4.1021,4.1033,4.1066,4.1058,4.1103,4.1087,4.1103,4.1116,4.1117,4.1121,4.1111,4.1126,4.1159,4.1162,4.1124,4.1123,4.1123,0,4.0722,4.0784,4.0825,4.0843,4.0892,4.0909,4.093,4.0962,4.0983,4.1014,4.1028,4.1061,4.1079,4.1104,4.1123,4.1116,4.1165,4.1159,4.1174,4.1173,4.1183,4.1182,4.1218,4.1195,4.1195,4.1195,4.1195,0,4.0758,4.0791,4.083,4.0855,4.0892,4.0917,4.0951,4.0972,4.1,4.1027,4.1042,4.1066,4.1092,4.1118,4.1133,4.1167,4.1175,4.1184,4.1187,4.1182,4.1181,4.1192,4.119,4.1196,4.1196,4.1196,4.1196,0,4.0775,4.0803,4.0849,4.0891,4.0902,4.0927,4.0961,4.0985,4.1004,4.1038,4.1047,4.1077,4.1109,4.1132,4.1172,4.1182,4.1218,4.1221,4.1207,4.1209,4.1222,4.122,4.1265,4.1271,4.1246,4.1246,4.1246,0,4.0796,4.0822,4.0867,4.0887,4.0908,4.0941,4.0963,4.0987,4.1009,4.1047,4.1065,4.1098,4.1126,4.1176,4.12,4.123,4.1234,4.1247,4.1238,4.1232,4.1232,4.123,4.1231,4.1248,4.1249,4.1249,4.1249,0,4.0828,4.084,4.0873,4.091,4.0936,4.0965,4.0995,4.101,4.1038,4.1061,4.1096,4.1117,4.1159,4.1191,4.1224,4.1241,4.1249,4.1252,4.1256,4.1251,4.1241,4.1245,4.1209,4.125,4.125,4.125,4.125,4.125,4.0846,4.087,4.0905,4.094,4.0965,4.0991,4.1015,4.1038,4.1067,4.1105,4.1116,4.1151,4.118,4.1225,4.1243,4.1268,4.1267,4.1274,4.1276,4.1277,4.1276,4.1238,4.1274,4.1274,4.1274,4.1274,4.1274,0,4.0878,4.0901,4.0933,4.0974,4.1001,4.1008,4.104,4.1061,4.1092,4.112,4.1148,4.1185,4.1216,4.1241,4.1272,4.1287,4.1291,4.1294,4.1293,4.1296,4.1276,4.1268,4.129,4.129,4.129,4.129,4.129,4.129,4.0897,4.0936,4.0952,4.1002,4.1024,4.106,4.1078,4.1101,4.1123,4.1165,4.1191,4.1209,4.1234,4.1267,4.1294,4.1301,4.1311,4.1313,4.132,4.13,4.1298,4.1296,4.1289,4.1315,4.1315,4.1338,4.1338,4.1338]}]]